Location: Azalea Creek
(37.1280°N, 119.2623°W)
Time: 22:12:45
(UTC+00:00)

SJ-11-01 - Pass Details

Date: 17 February 2020
Orbit: 685 x 700 km, 98.0° (Epoch: 05 April)

Event Time Altitude Azimuth Distance (km) Brightness Sun altitude
Rises 02:58:52 0° 154° (SSE) 3,052 7.4 -16.8°
Reaches altitude 10° 03:01:09 10° 149° (SSE) 2,137 6.5 -17.2°
Maximum altitude 03:05:41 52° 73° (ENE) 859 4.4 -18.1°
Drops below altitude 10° 03:10:13 10° 358° (N) 2,143 6.8 -19.0°
Sets 03:12:30 0° 354° (N) 3,061 7.7 -19.5°
